Regional Weather Roundup
Issued by NWS

Home | Current Version | Previous Version | Graphics & Text | Print | Product List | Glossary On
Versions: 1 2 3 4 5 6 7 8 9 10 11 12 13 14 15 16 17 18 19 20 21 22 23 24 25 26 27 28 29 30 31 32 33 34 35 36 37 38 39 40 41 42 43 44 45 46 47 48 49 50
000
ASUS45 KBOU 292007
RWRCO

WEATHER ROUNDUP FOR COLORADO
NATIONAL WEATHER SERVICE DENVER/BOULDER CO
200 PM MDT FRI AUG 29 2014

NOTE: "FAIR" INDICATES FEW OR NO CLOUDS BELOW 12000 FEET WITH NO
SIGNIFICANT WEATHER AND/OR OBSTRUCTIONS TO VISIBILITY.

COZ001>005-013-030-031-292100-
...NORTHWEST COLORADO...

CITY           SKY/WX    TMP DP  RH WIND       PRES   REMARKS
CRAIG          SUNNY     76  45  33 NW6       30.19F
HAYDEN         SUNNY     72  43  35 NW9G18    30.22F
MEEKER         SUNNY     75  41  29 SW10      30.21F
MOUNT WERNER   NOT AVBL
STEAMBOAT SPGS PTSUNNY   68  46  45 S6        30.24S
WALDEN         MOSUNNY   64  41  42 NW10      30.29F
$$

COZ006>008-011-292100-
...WEST CENTRAL VALLEYS...

CITY           SKY/WX    TMP DP  RH WIND       PRES   REMARKS
GRAND JUNCTION MOSUNNY   79  46  31 CALM      30.13F
MONTROSE       SUNNY     77  40  26 CALM      30.20F
EAGLE          PTSUNNY   75  45  33 W15G21    30.22F
RIFLE          MOSUNNY   74  47  38 W7        30.16F
DELTA          SUNNY     80  46  29 W3        30.15F
NUCLA          SUNNY     77  41  27 W8        30.23F
$$

COZ017>023-064>068-292100-
...SOUTHWEST COLORADO...

CITY           SKY/WX    TMP DP  RH WIND       PRES   REMARKS
DURANGO        SUNNY     76  30  18 VRB7      30.21F
CORTEZ         SUNNY     81  38  21 VRB7G20   30.17F
PAGOSA SPRINGS SUNNY     74  26  16 CALM      30.27F
TELLURIDE      SUNNY     66  37  34 CALM      30.38S
WOLF CREEK PAS PTSUNNY   50  30  46 SE7       30.55F
$$

COZ009-010-012-014-032>034-037-058>063-292100-
...CENTRAL COLORADO...

CITY           SKY/WX    TMP DP  RH WIND       PRES   REMARKS
ASPEN          MOSUNNY   70  37  29 VRB3      30.28F
BUENA VISTA    MOSUNNY   75  25  15 N8G17     30.26F
COPPER MTN     CLOUDY    54  36  50 W12G17    30.57S
BERTHOUD PASS  LGT RAIN  37  36  93 NE3       30.60S
COTTONWOOD PAS PTSUNNY   68  28  22 CALM      30.41S
GUNNISON       SUNNY     70  36  28 S3        30.31F
KREMMLING      MOSUNNY   72  43  35 E5        30.26F
LEADVILLE      MOSUNNY   60  33  36 NW10G20   30.41F
SALIDA         MOSUNNY   77  30  18 CALM      30.30F
SUNLIGHT       PTSUNNY   54  43  66 NW5       30.52F
WILKERSON PASS NOT AVBL
$$

COZ069>075-292100-
...SAN LUIS VALLEY/SANGRE DE CRISTO MOUNTAINS...

CITY           SKY/WX    TMP DP  RH WIND       PRES   REMARKS
ALAMOSA        SUNNY     72  33  24 SW7       30.27F
LA VETA PASS   NOT AVBL
SAGUACHE       NOT AVBL
$$

COZ035-036-038>040-292100-
...NORTHERN COLORADO FRONT RANGE...

CITY           SKY/WX    TMP DP  RH WIND       PRES   REMARKS
DENVER INTL AP MOSUNNY   78  46  32 CALM      30.10S
DMNS CITY PARK   N/A     76  45  32 W2G10     30.10S
AURORA         MOSUNNY   79  46  31 N8        30.13S
FRONT RANGE AP NOT AVBL
ERIE MUNI ARPT PTSUNNY   77  40  26 N15G29    30.10R
BOULDER MUN AP PTSUNNY   77  43  29 NE8       30.10F
CENTENNIAL     PTSUNNY   78  43  28 VRB6      30.13S
BROOMFIELD     PTSUNNY   77  46  33 N12       30.13S
FORT COLLINS   PTSUNNY   70  54  56 SW10      30.08S THUNDER
LONGMONT       PTSUNNY   71  50  47 NW10      30.11F
$$

COZ041-046-047-076>085-087-088-292100-
...PIKES PEAK/PALMER DIVIDE AND SOUTHERN FOOTHILLS...

CITY           SKY/WX    TMP DP  RH WIND       PRES   REMARKS
COLO. SPRINGS  MOSUNNY   79  35  20 VRB5      30.15F
A. F. ACADEMY  SUNNY     76  37  24 NE7       30.16F
ELLICOTT       MOSUNNY   79  38  22 N14       30.14F
FALCON         MOSUNNY   76  36  23 NW9       30.21F
FORT CARSON    MOSUNNY   80  38  22 NE3       30.13F
LIMON          SUNNY     80  42  25 NE14G20   30.10S
MONUMENT HILL  MOSUNNY   72  41  33 NE10      30.21F
TRINIDAD       SUNNY     82  33  17 W7        30.13F
$$

COZ042>045-048>051-090-091-292100-
...NORTHEAST COLORADO...

CITY           SKY/WX    TMP DP  RH WIND       PRES   REMARKS
GREELEY ARPT   MOSUNNY   79  45  29 E5        30.07S
AKRON          SUNNY     81  49  32 NW10      30.04F
BURLINGTON     SUNNY     84  45  25 N15G24    30.01S
WRAY             N/A     87  48  26 NW9G22    29.98S
STERLING       MOSUNNY   86  57  37 N14       30.00R
HOLYOKE        SUNNY     84  52  32 N9        29.97F
FORT MORGAN    SUNNY     83  46  27 NE10      30.05S
$$

COZ086-089-092>099-292100-
...SOUTHEAST COLORADO...

CITY           SKY/WX    TMP DP  RH WIND       PRES   REMARKS
PUEBLO         MOSUNNY   87  36  16 CALM      30.04F
LA JUNTA       MOSUNNY   87  41  19 N5        30.01F
LAMAR          SUNNY     88  46  23 N14       29.96F
SPRINGFIELD      N/A     84  42  22 N20G28    30.02F
$$


USA.gov is the U.S. government's official web portal to all federal, state and local government web resources and services.